Regional Weather Roundup
Issued by NWS

Home | Current Version | Previous Version | Text Only | Print | Product List | Glossary On
Versions: 1 2 3 4 5 6 7 8 9 10 11 12 13 14 15 16 17 18 19 20 21 22 23 24 25 26 27 28 29 30 31 32 33 34 35 36 37 38 39 40 41 42 43 44 45 46 47 48 49 50
000
ASUS43 KMPX 211710
RWRMN
WEATHER ROUNDUP FOR MINNESOTA
NATIONAL WEATHER SERVICE TWIN CITIES/CHANHASSEN MN
1200 PM CDT MON AUG 21 2017


NOTE: "FAIR" INDICATES FEW OR NO CLOUDS BELOW 12,000 FEET WITH NO
SIGNIFICANT WEATHER AND/OR OBSTRUCTIONS TO VISIBILITY. N/A MEANS
CURRENT SKY AND/OR WEATHER CONDITIONS ARE NOT AVAILABLE.

MNZ060>063-068>070-211800-
   Twin Cities Metro

CITY           SKY/WX    TMP DP  RH WIND       PRES   REMARKS
TWIN CITIES    PTSUNNY   79  64  60 CALM      29.97F
ST PAUL        MOSUNNY   78  66  66 E3        29.98F
CRYSTAL        PTSUNNY   79  61  53 CALM      29.96F
BLAINE         PTSUNNY   79  64  61 CALM      29.98F
LAKEVILLE      CLOUDY    73  68  83 E3        29.99F
EDEN PRAIRIE   MOSUNNY   79  65  62 SW5       29.97F
SOUTH ST PAUL  SUNNY     78  65  65 CALM      29.98F
LAKE ELMO      FAIR      79  68  69 E3        30.00F
$$
MNZ001>005-007-008-013>017-022>024-027-028-211800-
   Northwest Minnesota

CITY           SKY/WX    TMP DP  RH WIND       PRES   REMARKS
BEMIDJI        MOSUNNY   66  52  59 SE6       29.96F
HALLOCK        CLOUDY    68  55  64 E3        29.94F
ROSEAU           N/A     63  55  77 CALM      29.97F HAZE
WARROAD        CLOUDY    61  57  88 CALM      29.98F
THIEF RVR FALL CLOUDY    67  52  58 E3        29.95F
CROOKSTON      CLOUDY    70  54  56 S8        29.94S
FOSSTON        PTSUNNY   66  55  68 SE5       29.95F
DETROIT LAKES  CLOUDY    68  55  64 S12       29.95F
MOORHEAD       CLOUDY    70  57  64 S10       29.93F
PARK RAPIDS    CLOUDY    68  56  65 SE13      29.96F
MAHNOMEN       CLOUDY    67  54  62 S8        29.95F
$$
MNZ006-009>011-018-025>026-211800-
   North Central Minnesota

CITY           SKY/WX    TMP DP  RH WIND       PRES   REMARKS
BAUDETTE       CLOUDY    66  53  63 CALM      29.97F
FLAG ISLAND    CLOUDY    66  55  68 CALM      29.98S
INTL FALLS     MOSUNNY   70  53  54 VRB5      30.00F
WASKISH        CLOUDY    70  52  52 S7        29.97F
BIG FORK       MOSUNNY   66  54  63 CALM      30.01F
LONGVILLE      CLOUDY    61  57  88 CALM      29.99F
GRAND RAPIDS   LGT RAIN  61  56  83 E7        30.02F
CRANE LAKE     CLOUDY    66  55  68 CALM      30.04F
ORR            CLOUDY    64  54  68 SE3       30.01F
COOK           MOSUNNY   66  55  68 CALM      30.04F
WALKER         PTSUNNY   63  55  75 SE5       29.97F
$$
MNZ012-019>021-037-211800-
   Northeast Minnesota

CITY           SKY/WX    TMP DP  RH WIND       PRES   REMARKS
DULUTH         CLOUDY    67  52  58 S3        30.03F
ELY            CLOUDY    68  50  52 SW5       30.04S
HIBBING        CLOUDY    63  56  78 S3        30.04F
EVELETH        CLOUDY    65  53  63 SW7       30.05F
DULUTH HARBOR  CLOUDY    66  61  82 CALM      30.02F
TWO HARBORS    PTSUNNY   72  61  68 CALM      30.02F
SILVER BAY     CLOUDY    70  57  64 CALM      30.03R
GRAND MARAIS     N/A     68  57  68 CALM      30.02R
G MARAIS ARPRT CLOUDY    70  45  40 SW6       30.06S
$$
MNZ029>031-032-039>041-046>048-054>057-064-211800-
   West Central Minnesota

CITY           SKY/WX    TMP DP  RH WIND       PRES   REMARKS
FERGUS FALLS   CLOUDY    70  59  68 S8        29.94F
WHEATON        CLOUDY    66  57  72 SE9       29.95F
MORRIS         CLOUDY    66  63  88 S14       29.96R
ALEXANDRIA     CLOUDY    66  57  72 SE9       29.98F
ELBOW LAKE     FAIR      68  59  72 SE9       29.96S HAZE
WADENA         CLOUDY    64  57  77 E6        29.95F
GLENWOOD       LGT RAIN  63  59  88 SE10      29.98S
APPLETON       CLOUDY    64  61  88 SE8       29.95S
BENSON         DRIZZLE   63  61  94 S7        29.98F
ORTONVILLE     CLOUDY    63  59  88 MISG      29.94F
MADISON        CLOUDY    63  63 100 SE9       29.93F
WILLMAR        TSTM      64  63  94 SE3       30.02S
$$
MNZ033>034-036-042>043-049>051-058-059-211800-
   Central Minnesota

CITY           SKY/WX    TMP DP  RH WIND       PRES   REMARKS
ST CLOUD       LGT RAIN  66  63  90 NW6       30.03R
SAUK CENTRE    LGT RAIN  63  59  87 E12       29.96F
PAYNESVILLE    LGT RAIN  63  61  92 E10       29.97F
AITKIN         CLOUDY    63  57  82 CALM      30.00F
PINE RIVER     CLOUDY    61  55  82 E6        30.01F
BRAINERD       CLOUDY    65  60  84 E6        29.98F
STAPLES        CLOUDY    64  55  72 SE7       29.96F
LONG PRAIRIE   FAIR      63  57  82 E9        29.97F
LITTLE FALLS   CLOUDY    64  55  72 SE7       29.99F
LITCHFIELD     TSTM      66  64  94 N9        30.01F
BUFFALO        CLOUDY    73  64  72 NW8       30.01R
MAPLE LAKE     TSTM      69  65  86 NW6       30.02R
HUTCHINSON     CLOUDY    75  67  76 W6        30.00R
$$
MNZ037-044-045-052-053-211800-
   East Central Minnesota

CITY           SKY/WX    TMP DP  RH WIND       PRES   REMARKS
PRINCETON      CLOUDY    73  63  68 N6        30.00S
MORA           PTSUNNY   68  59  73 CALM      30.02F
CAMBRIDGE      PTSUNNY   75  61  60 CALM      30.00F
RUSH CITY      MOSUNNY   73  62  68 NE3       30.01S HAZE
MOOSE LAKE     CLOUDY    64  57  77 CALM      30.01F
HINCKLEY       FAIR      68  61  77 N3        30.01F
CLOQUET        MOSUNNY   66  54  63 CALM      30.03F
MCGREGOR       CLOUDY    64  55  72 CALM      30.03F
$$
MNZ071>073-080-081-089-090-097-098-211800-
   Southwest Minnesota

CITY           SKY/WX    TMP DP  RH WIND       PRES   REMARKS
MONTEVIDEO     TSTM      63  61  94 S10       29.96F
GRANITE FALLS  CLOUDY    63  62  96 N13       30.01F THUNDER
CANBY          TSTM      62  61  97 CALM      29.98F
MARSHALL       TSTM      61  61 100 SE8       30.00F FOG
REDWOOD FALLS  CLOUDY    72  66  81 W10       29.97F
OLIVIA         CLOUDY    72  66  83 SW6       29.99F
PIPESTONE      CLOUDY    70  66  88 N7        30.05R
WINDOM         PTSUNNY   75  68  78 W9        29.97F
WORTHINGTON    CLOUDY    71  67  87 W3        30.03R THUNDER
JACKSON        PTSUNNY   73  64  73 CALM      29.98F THUNDER
TRACY          TSTM      67  67  99 NW15G26   30.04R
SLAYTON        CLOUDY    70  64  80 NW7       30.00F
$$
MNZ065>067-074>077-082>085-091>093-211800-
   South Central Minnesota

CITY           SKY/WX    TMP DP  RH WIND       PRES   REMARKS
MANKATO        CLOUDY    77  64  64 S8        29.98F
NEW ULM        LGT RAIN  73  66  78 SW9       29.96F
ST JAMES       MOSUNNY   79  66  65 W8        29.97F
FAIRMONT       CLOUDY    75  66  73 MISG      29.98F
GLENCOE        PTSUNNY   78  69  72 SW6       29.97F
FARIBAULT      CLOUDY    75  68  78 NE5       30.00F
OWATONNA       SUNNY     79  68  69 CALM      29.99F
WASECA         SUNNY     77  63  61 S5        30.00F
ALBERT LEA     SUNNY     81  64  57 SE9       29.99S
$$
MNZ078>079-086>088-094>096-211800-
   Southeast Minnesota

CITY           SKY/WX    TMP DP  RH WIND       PRES   REMARKS
ROCHESTER      CLOUDY    78  68  71 SE5       30.01R
RED WING       SUNNY     75  64  69 SE6       29.98F
STANTON        CLOUDY    77  67  71 E3        29.98F
DODGE CENTER   SUNNY     79  64  61 CALM      30.01F
WINONA         SUNNY     79  68  69 E5        29.98R
AUSTIN         MOSUNNY   79  64  61 SE8       29.99F
PRESTON        CLOUDY    77  63  63 SE8       30.02R
$$
ABBREVIATIONS USED IN REMARKS
   TC - TEMPERATURES IN CELSIUS
  WCI - WIND CHILL INDEX
   HX - HEAT INDEX
  VSB - VISIBILITY
$$




USA.gov is the U.S. government's official web portal to all federal, state and local government web resources and services.